Hot Springs, VA

8:21 AM EDT on June 21, 2018 (GMT -0400)
Ingalls

Weather History for KHSP - October, 2017

Change the Weather History Date:

Thursday, October 12, 2017

  Actual Average Record
Temperature  
Mean Temperature 54 °F -  
Max Temperature 62 °F 57 °F 73 °F (2010)
Min Temperature 46 °F 43 °F 30 °F (1996)
Degree Days  
Heating Degree Days 10    
Growing Degree Days 4 (Base 50)    
Moisture  
Dew Point 55 °F    
Average Humidity 96    
Maximum Humidity 100    
Minimum Humidity 72    
Precipitation  
Precipitation 0.00 in - - ()
Sea Level Pressure  
Sea Level Pressure 30.24 in    
Wind  
Wind Speed 4 mph (ENE)    
Max Wind Speed 14 mph    
Max Gust Speed 17 mph    
Visibility 3 miles    
Events Fog , Rain    
Averages and records for this station are not official NWS values.
T = Trace of Precipitation, MM = Missing Value Source: NWS Daily Summary

Daily Weather History Graph

Daily Weather History Graph

Search for Another Location

Airport or City:

Astronomy

Oct. 12, 2017 Rise Set
Actual Time 7:25 AM EDT 6:45 PM EDT
Civil Twilight 6:58 AM EDT 7:11 PM EDT
Nautical Twilight 6:28 AM EDT 7:42 PM EDT
Astronomical Twilight 5:57 AM EDT 8:12 PM EDT
Moon No Moon Rise 2:31 PM EDT (10/12)
Length of Visible Light 12h 13m
Length of Day
11h 20m
Waning Gibbous, 49% of the Moon is Illuminated
Oct 12
Waning Gibbous
Oct 19
New
Oct 27
First Quarter
Nov 4
Full
Nov 10
Last Quarter

Hourly Weather History & Observations

Time (EDT) Temp. Windchill Dew Point Humidity Pressure Visibility Wind Dir Wind Speed Gust Speed Precip Events Conditions
12:15 AM 63.1 °F - 60.8 °F 92% 30.15 in 5.0 mi NW 12.7 mph 17.3 mph N/A   Scattered Clouds
12:35 AM 62.8 °F - 60.8 °F 93% 30.17 in 5.0 mi NW 10.4 mph - N/A   Scattered Clouds
12:55 AM 62.6 °F - 60.8 °F 94% 30.16 in 5.0 mi WNW 6.9 mph - N/A   Clear
1:15 AM 62.6 °F - 61.0 °F 94% 30.17 in 5.0 mi Calm Calm - N/A   Scattered Clouds
1:35 AM 62.4 °F - 60.8 °F 94% 30.17 in 5.0 mi Calm Calm - N/A   Mostly Cloudy
1:55 AM 61.9 °F - 60.8 °F 96% 30.17 in 7.0 mi Calm Calm - N/A   Scattered Clouds
2:15 AM 61.7 °F - 60.6 °F 96% 30.17 in 5.0 mi Calm Calm - N/A   Scattered Clouds
2:35 AM 61.3 °F - 60.8 °F 98% 30.17 in 5.0 mi WNW 8.1 mph - N/A   Clear
2:55 AM 61.9 °F - 58.8 °F 90% 30.17 in 7.0 mi Calm Calm - N/A   Clear
3:15 AM 61.2 °F - 59.9 °F 96% 30.17 in 5.0 mi West 13.8 mph - N/A   Clear
3:35 AM 61.0 °F - 56.3 °F 85% 30.17 in 7.0 mi West 6.9 mph - N/A   Clear
3:55 AM 60.3 °F - 55.6 °F 85% 30.17 in 5.0 mi Calm Calm - N/A   Clear
4:15 AM 59.9 °F - 52.7 °F 77% 30.17 in 5.0 mi Calm Calm - N/A   Haze
4:35 AM 59.9 °F - 52.9 °F 78% 30.17 in 7.0 mi Calm Calm - N/A   Clear
4:55 AM 60.1 °F - 52.2 °F 75% 30.17 in 10.0 mi Calm Calm - N/A   Clear
5:15 AM 59.2 °F - 51.6 °F 76% 30.18 in 10.0 mi Calm Calm - N/A   Clear
5:35 AM 58.1 °F - 52.9 °F 83% 30.18 in 10.0 mi Calm Calm - N/A   Clear
5:55 AM 55.6 °F - 54.0 °F 94% 30.19 in 10.0 mi Calm Calm - N/A   Clear
6:15 AM 58.5 °F - 55.2 °F 89% 30.19 in 10.0 mi Calm Calm - N/A   Clear
6:35 AM 57.9 °F - 55.4 °F 91% 30.19 in 10.0 mi Calm Calm - N/A   Clear
6:55 AM 56.5 °F - 54.1 °F 92% 30.20 in 10.0 mi Calm Calm - N/A   Clear
7:15 AM 58.1 °F - 56.3 °F 94% 30.21 in 10.0 mi Calm Calm - N/A   Clear
7:35 AM 59.5 °F - 50.4 °F 72% 30.22 in 10.0 mi Calm Calm - N/A   Mostly Cloudy
7:55 AM 59.7 °F - 52.9 °F 78% 30.22 in 10.0 mi Calm Calm - N/A   Overcast
8:15 AM 59.2 °F - 56.3 °F 90% 30.23 in 10.0 mi Calm Calm - N/A   Overcast
8:35 AM 59.4 °F - 57.4 °F 93% 30.23 in 10.0 mi Calm Calm - N/A   Overcast
8:55 AM 59.9 °F - 59.9 °F 100% 30.24 in 0.2 mi Calm Calm - N/A Fog Fog
9:15 AM 59.5 °F - 59.5 °F 100% 30.24 in 0.2 mi Calm Calm - N/A Fog Fog
9:35 AM 59.7 °F - 59.7 °F 100% 30.25 in 0.2 mi Calm Calm - N/A Fog Fog
9:55 AM 59.4 °F - 59.4 °F 100% 30.25 in 0.2 mi Calm Calm - N/A Rain Heavy Rain
10:15 AM 59.4 °F - 59.4 °F 100% 30.26 in 0.2 mi Calm Calm - N/A   Drizzle
10:35 AM 59.4 °F - 59.4 °F 100% 30.26 in 0.2 mi Calm Calm - N/A   Drizzle
10:55 AM 59.9 °F - 59.9 °F 100% 30.26 in 0.2 mi Calm Calm - N/A   Heavy Drizzle
11:15 AM 59.9 °F - 59.9 °F 100% 30.26 in 0.2 mi Calm Calm - N/A   Drizzle
11:35 AM 60.1 °F - 60.1 °F 100% 30.27 in 0.2 mi Calm Calm - N/A   Drizzle
11:55 AM 60.1 °F - 60.1 °F 100% 30.26 in 0.2 mi East 6.9 mph - N/A   Drizzle
12:15 PM 60.4 °F - 60.4 °F 100% 30.26 in 0.2 mi Calm Calm - N/A   Drizzle
12:35 PM 60.8 °F - 60.8 °F 100% 30.26 in 0.2 mi Calm Calm - N/A   Drizzle
12:55 PM 60.3 °F - 60.3 °F 100% 30.26 in 0.2 mi Calm Calm - N/A   Drizzle
1:15 PM 59.5 °F - 59.5 °F 100% 30.26 in 0.2 mi Calm Calm - N/A   Drizzle
1:35 PM 59.7 °F - 59.7 °F 100% 30.26 in 0.2 mi Calm Calm - N/A   Drizzle
1:55 PM 59.2 °F - 59.2 °F 100% 30.26 in 0.2 mi East 8.1 mph - N/A Rain Light Rain
2:15 PM 58.8 °F - 58.8 °F 100% 30.26 in 1.0 mi ENE 8.1 mph - N/A   Overcast
2:35 PM 58.3 °F - 58.3 °F 100% 30.25 in 0.5 mi Calm Calm - N/A Fog Fog
2:55 PM 57.7 °F - 57.7 °F 100% 30.25 in 0.5 mi ENE 10.4 mph - N/A Fog Fog
3:15 PM 57.2 °F - 57.2 °F 100% 30.25 in 0.2 mi ENE 10.4 mph - N/A Fog Fog
3:35 PM 56.8 °F - 56.8 °F 100% 30.25 in 0.2 mi East 6.9 mph - N/A   Drizzle
3:55 PM 56.3 °F - 56.3 °F 100% 30.26 in 0.2 mi East 6.9 mph - N/A Rain Heavy Rain
4:15 PM 55.8 °F - 55.8 °F 100% 30.26 in 0.2 mi Calm Calm - N/A   Heavy Drizzle
4:35 PM 55.4 °F - 55.4 °F 100% 30.26 in 0.2 mi East 4.6 mph - N/A   Drizzle
4:55 PM 54.7 °F - 54.7 °F 100% 30.26 in 0.2 mi Calm Calm - N/A   Drizzle
5:15 PM 54.5 °F - 54.5 °F 100% 30.26 in 0.2 mi Calm Calm - N/A   Drizzle
5:35 PM 53.8 °F - 53.8 °F 100% 30.26 in 0.2 mi East 5.8 mph - N/A   Drizzle
5:55 PM 53.2 °F - 53.2 °F 100% 30.27 in 0.2 mi Calm Calm - N/A   Drizzle
6:15 PM 52.7 °F - 52.7 °F 100% 30.27 in 0.2 mi East 5.8 mph - N/A Rain Heavy Rain
6:35 PM 52.2 °F - 52.2 °F 100% 30.28 in 0.2 mi Calm Calm - N/A   Heavy Drizzle
6:55 PM 51.8 °F - 51.8 °F 100% 30.28 in 0.2 mi Calm Calm - N/A   Heavy Drizzle
7:15 PM 51.4 °F - 51.4 °F 100% 30.29 in 0.2 mi East 6.9 mph - N/A Rain Heavy Rain
7:35 PM 50.9 °F - 50.9 °F 100% 30.29 in 0.2 mi East 8.1 mph - N/A Rain Heavy Rain
7:55 PM 50.7 °F - 50.7 °F 100% 30.29 in 0.2 mi East 8.1 mph - N/A Rain Heavy Rain
8:15 PM 50.2 °F - 50.2 °F 100% 30.30 in 0.2 mi East 9.2 mph - N/A   Heavy Drizzle
8:35 PM 49.6 °F - 49.6 °F 100% 30.30 in 0.2 mi East 8.1 mph - N/A Rain Heavy Rain
8:55 PM 49.3 °F - 49.3 °F 100% 30.30 in 0.2 mi East 9.2 mph - N/A Rain Heavy Rain
9:15 PM 48.9 °F - 48.9 °F 100% 30.30 in 0.2 mi East 10.4 mph - N/A   Heavy Drizzle
9:35 PM 48.4 °F - 48.4 °F 100% 30.30 in 0.2 mi East 10.4 mph - N/A Rain Rain
9:55 PM 48.2 °F - 48.2 °F 100% 30.31 in 0.2 mi East 9.2 mph - N/A Rain Heavy Rain
10:15 PM 47.5 °F - 47.5 °F 100% 30.31 in 0.2 mi East 9.2 mph - N/A Rain Heavy Rain
10:35 PM 47.3 °F - 47.3 °F 100% 30.32 in 0.2 mi Calm Calm - N/A   Heavy Drizzle
10:55 PM 46.8 °F - 46.8 °F 100% 30.32 in 0.2 mi East 8.1 mph - N/A   Heavy Drizzle
11:15 PM 46.4 °F 42.4 °F 46.4 °F 100% 30.32 in 0.2 mi East 8.1 mph - N/A Rain Heavy Rain
11:35 PM 46.2 °F - 46.2 °F 100% 30.32 in 0.2 mi Calm Calm - N/A Rain Heavy Rain
11:55 PM 46.0 °F 41.4 °F 46.0 °F 100% 30.33 in 0.2 mi East 9.2 mph - N/A Rain Rain